Retour au catalogue

KUIPER-00142

ActifCommunicationsLEO
NORAD 65766·PAYLOAD·🇺🇸 United States

Lancé Sep 25, 2025 depuis Cape Canaveral Space Force Station

Loading…

Prochains Passages (prochaines 24 heures)

TLE

FraisSource: CelesTrak SupGP

Époque: Sep 14, 2026, 22:55 UTC

1 65766C 25217E   26257.95498843  .00003556  00000+0  46556-3 0  2573
2 65766  51.8980 278.6483 0000515  64.8709 175.2775 14.79919086    15

Suivez KUIPER-00142 en temps réel avec AllMySat

Download on the App Store